Date,TemperatureHighF,TemperatureAvgF,TemperatureLowF,DewpointHighF,DewpointAvgF,DewpointLowF,HumidityHigh,HumidityAvg,HumidityLow,PressureMaxIn,PressureMinIn,WindSpeedMaxMPH,WindSpeedAvgMPH,GustSpeedMaxMPH,PrecipitationSumIn
2013-1-1,45.0,41.4,40.0,44.0,40.6,38.0,100,97,90,30.42,30.12,30,14,0,0.00
2013-1-2,49.0,41.4,35.0,48.0,40.9,35.0,100,98,92,30.18,29.98,32,9,0,0.00
2013-1-3,47.0,45.2,41.0,46.0,44.0,41.0,99,95,84,30.06,29.86,22,13,0,0.00
2013-1-4,48.0,42.5,40.0,44.0,42.1,40.0,100,99,85,30.17,29.88,23,8,0,0.00
2013-1-5,48.0,41.2,35.0,45.0,40.9,35.0,100,99,84,29.96,29.70,25,16,0,0.00
2013-1-6,42.0,41.1,39.0,42.0,41.0,39.0,100,100,99,29.90,29.59,21,10,0,0.00
2013-1-7,46.0,43.0,41.0,45.0,41.9,40.0,100,96,85,29.91,29.52,24,13,0,0.00
2013-1-8,44.0,40.6,36.0,44.0,40.2,36.0,100,98,90,29.92,29.44,23,12,0,0.00
2013-1-9,40.0,36.6,34.0,40.0,36.2,33.0,100,98,89,30.09,29.46,10,5,0,0.00
2013-1-10,35.0,33.1,31.0,35.0,32.3,31.0,99,96,90,30.29,30.22,11,8,0,0.00
2013-1-11,35.0,32.1,30.0,34.0,31.5,29.0,99,97,88,30.31,30.24,21,9,0,0.00
2013-1-12,38.0,35.8,34.0,36.0,34.1,31.0,99,93,82,30.46,30.29,23,6,0,0.00
2013-1-13,40.0,37.2,36.0,40.0,37.2,35.0,100,100,99,30.45,30.42,9,6,0,0.00
2013-1-14,40.0,39.5,39.0,40.0,39.5,39.0,100,100,100,30.46,30.45,5,4,0,0.00
2013-1-15,44.0,42.6,41.0,44.0,42.6,41.0,100,100,100,30.53,30.41,29,12,0,0.00
2013-1-16,46.0,43.8,42.0,46.0,43.8,42.0,100,100,100,30.46,30.18,15,8,0,0.00
2013-1-17,47.0,45.8,45.0,47.0,45.8,45.0,100,100,99,30.15,29.94,38,25,0,0.00
2013-1-18,46.0,43.2,40.0,46.0,43.2,40.0,100,100,99,30.31,30.11,24,13,0,0.00
2013-1-19,40.0,38.3,35.0,40.0,38.3,35.0,100,100,99,30.42,30.31,21,8,0,0.00
2013-1-20,45.0,39.1,37.0,45.0,39.1,37.0,100,100,99,30.42,30.29,13,8,0,0.00
2013-1-21,42.0,38.7,37.0,42.0,38.7,37.0,100,100,99,30.24,30.16,6,5,0,0.00
2013-1-22,41.0,37.9,34.0,41.0,37.9,34.0,100,100,99,30.14,29.94,8,4,0,0.00
2013-1-23,42.0,41.1,41.0,42.0,40.9,40.0,100,100,99,29.94,29.87,7,4,0,0.00
2013-1-24,44.0,42.7,40.0,44.0,42.7,40.0,100,100,100,30.19,30.05,6,4,0,0.00
2013-1-25,49.0,44.7,43.0,49.0,44.7,43.0,99,99,99,29.97,29.93,3,2,0,0.00
2013-1-26,42.0,41.8,41.0,42.0,41.8,41.0,100,100,100,30.00,29.88,5,3,0,0.00
2013-1-27,40.0,39.5,39.0,40.0,39.5,39.0,100,100,100,30.02,30.01,5,3,0,0.00
2013-1-28,42.0,40.5,38.0,42.0,40.5,38.0,100,100,100,30.00,29.97,8,5,0,0.00
2013-2-28,42.0,40.7,40.0,41.0,40.5,40.0,100,100,99,30.24,30.22,3,2,0,0.00
2013-3-2,47.0,44.5,43.0,47.0,44.5,43.0,100,100,99,30.15,30.03,21,17,0,0.00
2013-3-3,49.0,43.2,40.0,46.0,42.7,40.0,100,98,86,30.31,30.16,22,10,0,0.00
2013-3-4,47.0,40.8,37.0,45.0,40.2,37.0,100,99,91,30.30,30.09,8,5,0,0.00
2013-3-5,47.0,45.5,44.0,42.0,42.0,42.0,94,88,81,29.89,29.85,7,6,0,0.00
2013-3-6,44.0,42.7,41.0,44.0,42.7,41.0,100,100,100,29.73,29.65,9,7,0,0.00
2013-3-7,48.0,44.7,43.0,48.0,44.7,43.0,100,100,100,30.09,29.94,7,6,0,0.00
2013-3-8,50.0,43.2,40.0,49.0,42.8,40.0,100,100,99,30.23,30.11,7,3,0,0.00
2013-3-9,49.0,41.8,35.0,49.0,41.8,35.0,100,100,99,30.50,30.30,8,5,0,0.00
2013-3-10,46.0,44.7,43.0,46.0,44.6,43.0,100,100,99,30.48,30.44,8,6,0,0.00
2013-3-11,48.0,41.8,38.0,47.0,41.7,38.0,100,100,99,30.42,30.31,5,2,0,0.00
2013-3-15,50.0,49.5,49.0,50.0,49.5,49.0,100,100,100,30.15,30.13,2,2,0,0.00
2013-3-16,50.0,46.3,41.0,50.0,46.2,41.0,100,100,99,30.11,29.89,17,8,0,0.00
2013-3-17,46.0,42.5,41.0,44.0,42.1,40.0,100,98,86,30.17,29.95,21,11,0,0.00
2013-5-6,47.0,47.0,47.0,47.0,47.0,47.0,100,100,100,30.10,30.10,0,0,0,0.00
2013-5-7,66.0,51.1,41.0,55.0,47.7,41.0,100,90,67,30.08,30.02,15,10,0,0.00
2013-5-8,57.0,51.1,47.0,57.0,51.0,47.0,100,99,96,30.19,30.00,16,9,0,0.00
2013-5-9,54.0,49.5,47.0,54.0,49.5,47.0,100,100,99,30.27,30.19,10,5,0,0.00
2013-5-10,63.0,52.0,47.0,60.0,50.6,-99.9,100,99,87,30.25,30.09,7,4,0,0.00
2013-5-11,54.0,50.8,51.0,54.0,48.1,-99.9,100,97,100,30.08,29.83,8,4,0,0.00
2013-5-12,54.0,53.0,51.0,54.0,53.0,51.0,100,100,100,29.75,29.70,21,8,0,0.00
2013-5-13,52.0,49.5,48.0,51.0,49.4,48.0,100,100,96,29.83,29.71,23,12,0,0.00
2013-5-14,53.0,48.9,48.0,53.0,48.8,48.0,100,99,95,30.01,29.85,24,17,0,0.00
2013-5-15,54.0,51.0,48.0,54.0,51.0,48.0,100,100,100,30.03,29.88,5,2,0,0.00
2013-5-16,60.0,49.2,50.0,60.0,26.6,-99.9,100,100,99,30.04,29.94,13,7,0,0.00
2013-5-17,-200.0,0.0,200.0,-99.9,-99.9,-99.9,0,0,100,29.92,29.92,5,5,0,0.00
2013-5-18,54.0,51.4,51.0,54.0,51.4,51.0,100,100,100,30.35,30.16,18,14,0,0.00
2013-5-19,62.0,55.2,50.0,61.0,54.6,50.0,100,98,88,30.42,30.36,23,12,0,0.00
2013-5-20,58.0,53.2,50.0,57.0,53.2,50.0,100,100,99,30.35,30.07,8,5,0,0.00
2013-5-21,53.0,50.1,48.0,52.0,49.9,48.0,100,100,99,29.86,29.80,11,6,0,0.00
2013-5-22,53.0,50.8,49.0,53.0,50.8,49.0,100,100,99,29.89,29.87,8,4,0,0.00
2013-5-23,58.0,54.3,51.0,56.0,53.7,51.0,100,97,93,29.98,29.97,8,6,0,0.00
2013-5-24,56.0,50.9,48.0,56.0,50.9,48.0,100,100,99,30.03,30.00,9,7,0,0.00
2013-5-25,55.0,52.1,51.0,55.0,52.1,51.0,100,100,99,30.04,30.01,6,3,0,0.00